sat.trackr.live / text

‹ back to catalog

STARLINK-37759

NORAD 69223 · 2026-115N

PAYLOAD ACTIVE UNKNOWN

§ Identity

Operator
Country
US
Launch date
2026-05-26
Launch site
AFWTR
Launch vehicle
Mass (kg)
RCS (m²)

Purposes: comms

External: N2YO · Heavens-Above · Gunter

§ Orbital elements

Epoch: 2026-09-19T06:41:42.048960Z

Period
93.91 min
Inclination
97.2802°
Eccentricity
0.0002429
Mean motion
15.33457847 rev/d
Perigee alt
463.8 km
Apogee alt
467.2 km
Semi-major
6,843.6 km
B*
5.2743e-4
RAAN
278.3949°
Arg perigee
142.0331°
Mean anomaly
218.1084°
Rev number
1,910

§ Raw data

STARLINK-377591 69223U 26115N   26262.27895890  .00016998  00000+0  52743-3 0  99992 69223  97.2802 278.3949 0002429 142.0331 218.1084 15.33457847 19107

JSON: /api/v1/satellites/69223 · /tle

For live sub-satellite position, see the globe view (requires WebGL).

§ Visibility from observer

Set your observer location to see the next 7 days of passes ≥ 10°. The values pass through the URL so the page stays shareable.

No JS? Fill the form by hand. The geolocation button needs JavaScript.